Location: *
(41.7492°S, 135.4150°W)
Time: 23:00:29
(UTC+00:00)

METEOR M2 - Pass Details

Date: 07 July 2022
Orbit: 818 x 827 km, 98.4° (Epoch: 17 August)

Event Time Altitude Azimuth Distance (km) Brightness Sun altitude
Exits shadow 04:11:43 62° 168° (SSE) 932 ? -26.7°
Maximum altitude 04:12:41 89° 253° (WSW) 837 ? -26.9°
Drops below altitude 10° 04:18:04 10° 344° (NNW) 2,424 ? -27.8°
Sets 04:20:24 0° 344° (NNW) 3,350 ? -28.3°
